Temp
13 13 13 12 12 12 14 14 14 15 16 16 17 17 18 18 18 18 18 19 19 19 19 19 19 19 19 19 19 21 21 21 21 20 19 19 20 19 19 19 18 19 19 18 18 17 17
12 12 13 13 13 13 14 15 15 16 16 16 17 17 18 18 18 19 19 19 19 19 19 19 19 19 18 19 21 21 21 21 21 20 19 19 19 18 19 19 18 18 18 17 17 17 16
13 13 13 14 14 14 14 15 15 16 16 16 17 18 18 18 18 19 19 19 19 19 19 19 19 19 18 18 21 20 20 20 20 20 18 18 18 19 18 19 18 18 18 16 16 17 17
13 13 13 14 14 14 14 15 15 16 16 16 17 18 18 18 18 19 19 19 19 19 19 19 19 19 17 20 20 20 20 20 19 20 20 19 19 18 18 17 16 17 16 18 18 16 17
13 13 13 14 14 13 14 15 15 15 16 16 17 17 18 18 18 19 19 19 19 19 19 19 19 18 18 20 20 20 20 19 19 19 19 19 18 16 17 16 16 15 18 18 17 15 17
13 13 13 14 13 13 14 14 15 15 16 16 17 18 18 19 19 19 19 19 19 19 18 18 18 18 19 20 19 19 19 19 18 18 18 18 13 15 13 15 18 18 18 17 16 18 16
13 13 13 11 10 12 13 14 14 15 16 16 17 18 18 19 19 19 19 19 16 17 17 18 19 19 19 19 19 19 19 18 18 18 18 16 17 16 17 15 18 18 17 17 15 16 16
12 10 10 10 9 10 12 13 14 15 15 16 17 18 19 19 19 19 18 14 14 15 16 16 17 18 18 19 19 18 19 18 18 18 17 17 16 17 17 16 17 17 17 15 15 15 15
9 9 9 10 10 10 12 13 14 14 15 16 17 18 19 19 19 18 16 14 14 14 15 17 17 18 18 18 18 18 17 18 18 18 16 16 19 16 18 17 17 16 15 15 16 14 14
9 9 9 9 9 11 12 13 13 14 15 16 16 17 18 19 18 16 15 15 14 14 15 18 18 18 18 18 18 17 17 18 18 18 16 16 16 16 17 16 15 16 14 16 16 15 14
9 9 9 9 9 11 12 12 13 14 14 15 16 17 18 18 17 16 16 15 15 14 16 19 18 18 17 17 17 17 16 17 18 18 17 18 15 16 16 16 15 16 16 15 15 13 12
9 9 9 9 10 10 11 12 13 13 14 15 16 17 17 17 16 15 15 15 14 16 16 20 18 18 18 17 18 16 17 16 16 17 16 15 15 15 16 15 15 14 14 12 10 10 11
10 9 9 9 9 10 11 11 12 13 14 15 16 17 17 16 15 15 15 14 15 16 19 20 18 17 18 18 18 16 16 16 16 17 16 17 15 15 16 16 15 15 14 14 14 12 14
10 10 10 9 8 9 11 11 12 12 13 15 16 17 16 15 15 15 15 15 18 17 17 18 18 18 18 17 17 16 16 15 14 16 14 15 15 14 14 15 15 13 13 14 16 15 14
9 9 10 8 7 8 10 11 11 12 13 14 16 16 15 14 14 15 13 14 15 15 18 18 18 17 17 17 16 16 14 14 15 13 17 13 15 14 14 15 15 14 13 14 15 12 11
7 7 7 6 6 7 7 9 10 11 13 14 14 13 14 14 14 14 13 14 15 16 18 18 17 16 16 17 16 15 15 15 16 13 16 16 15 14 13 14 13 14 13 13 11 14 13
6 6 5 5 5 6 5 7 9 10 12 13 12 11 14 14 14 11 12 12 14 15 16 16 16 16 15 16 14 14 16 17 16 14 13 14 14 14 13 12 13 12 12 12 12 11 12
5 5 5 5 4 4 4 4 6 7 10 11 9 11 14 14 13 7 11 13 14 15 15 15 15 14 14 14 14 12 14 16 14 13 14 13 11 12 12 13 13 12 12 13 14 13 11
4 4 4 4 4 4 4 4 4 5 5 5 9 10 12 13 12 10 11 13 14 15 14 15 14 13 13 13 14 13 13 15 13 13 13 12 12 12 14 12 11 12 11 12 12 11 15
4 4 4 3 3 3 3 3 3 4 6 7 9 10 9 8 8 12 12 12 13 14 13 14 13 14 13 13 12 14 14 15 13 13 14 14 12 13 14 15 12 11 11 11 14 13 12
3 3 3 3 3 3 3 3 3 3 7 7 9 10 9 10 10 10 11 12 13 13 13 13 13 13 13 13 12 12 12 13 13 14 13 14 14 12 14 14 14 14 13 12 13 13 12
3 2 3 3 3 2 2 2 3 3 6 7 7 8 7 8 10 10 11 12 12 13 12 13 13 13 13 13 13 12 13 14 14 12 11 11 12 11 11 12 12 12 12 12 12 13 13
3 3 3 2 2 2 2 2 2 3 3 3 3 3 5 7 9 9 10 7 8 6 9 9 7 8 9 11 9 9 12 14 15 14 12 10 10 11 12 13 13 12 12 13 13 12 13
2 2 3 3 2 2 2 2 2 2 2 2 3 2 3 3 5 6 6 7 7 6 7 7 8 8 9 9 9 10 12 11 12 13 14 12 10 10 12 12 12 13 5 8 11 9 5
2 2 2 2 2 2 2 2 2 2 2 2 2 2 3 3 3 3 4 4 4 5 6 7 8 9 9 8 8 10 11 11 11 12 12 13 13 11 12 12 14 10 3 4 7 4 -0
2 2 2 2 2 1 1 1 2 2 2 2 2 2 3 2 2 3 2 2 3 3 3 6 6 7 7 7 9 9 11 11 11 9 7 11 13 12 12 12 13 2 0 -0 1 5 -1
1 1 1 1 2 2 2 1 1 1 2 2 2 2 2 1 1 2 2 2 2 2 2 2 3 4 6 6 6 8 9 9 10 10 9 9 9 11 12 12 4 -4 -5 -2 6 0 -4
1 1 1 1 1 2 2 1 1 1 2 2 2 2 2 1 2 2 2 1 1 2 2 2 3 3 3 4 4 6 7 5 5 6 6 6 6 8 7 9 8 -6 -3 -0 -5 -6 -6
2 2 2 1 1 1 2 1 1 1 2 2 1 2 2 1 1 2 2 2 1 2 2 2 2 2 2 2 -0 -1 2 3 5 4 7 6 -2 0 -3 -3 -6 -8 -8 -8 -8 -8 -8
Height
830 826 823 819 815 811 807 803 798 795 792 790 787 784 783 781 781 780 780 780 780 780 780 780 780 778 777 778 774 769 769 768 768 768 769 770 772 775 780 779 779 780 778 777 775 777 778
832 829 825 822 818 814 810 806 801 797 794 791 788 784 782 781 780 780 780 780 780 780 780 779 778 777 776 781 768 768 768 768 767 767 768 769 770 771 776 777 780 778 778 777 775 776 777
834 831 828 824 820 816 813 809 805 800 796 792 787 784 782 780 779 779 779 779 779 779 779 778 777 776 775 774 768 768 768 767 767 767 768 768 768 771 774 778 776 777 779 778 777 775 776
835 832 829 826 822 819 815 811 807 803 798 794 789 785 781 779 778 777 778 778 777 777 777 777 776 775 775 767 767 767 767 767 767 767 767 768 768 771 774 776 780 781 785 787 772 776 774
837 834 830 827 824 821 817 813 809 805 800 795 790 785 781 779 777 776 776 775 774 774 775 774 775 774 774 767 767 766 767 766 766 767 768 768 769 776 778 785 791 792 790 787 782 776 775
838 835 831 828 825 821 818 814 810 805 800 796 790 785 781 778 776 774 773 772 772 772 773 773 774 778 769 766 765 765 766 765 766 767 769 771 779 784 789 790 796 786 786 785 788 775 777
839 836 832 829 826 822 818 815 810 805 800 795 790 785 780 776 776 773 772 772 776 775 771 768 767 767 765 764 764 764 764 765 766 768 777 776 784 787 779 781 776 777 784 787 782 775 777
840 837 833 831 827 823 820 816 812 806 801 796 791 785 781 778 776 773 773 775 778 779 776 763 764 764 762 763 766 764 765 768 769 775 775 782 785 771 772 777 778 781 785 789 781 776 778
841 838 835 832 828 825 821 817 812 806 801 797 791 785 781 778 776 776 776 778 777 778 780 766 762 762 762 763 764 764 764 766 769 774 778 782 769 772 771 777 781 783 787 784 780 780 779
842 839 836 833 829 826 823 818 813 808 803 797 792 787 782 778 780 778 778 778 777 778 789 769 765 761 762 762 765 762 763 766 769 773 777 778 771 772 774 777 781 783 778 776 778 786 792
844 841 837 834 831 827 823 818 813 808 803 798 793 788 783 779 779 779 780 777 777 779 812 765 764 760 761 766 765 763 763 765 769 770 773 769 774 775 777 773 775 775 774 778 782 790 795
845 842 839 836 831 827 823 818 814 809 803 798 793 788 783 781 779 780 778 777 779 794 808 764 762 763 764 764 763 764 764 765 767 770 771 772 768 769 767 767 771 776 778 789 801 801 801
846 843 841 838 833 829 824 819 814 809 803 797 791 786 782 781 780 779 778 779 798 805 765 765 764 765 764 764 763 766 768 771 775 775 776 767 769 764 762 767 771 773 782 794 792 800 783
846 844 842 838 834 829 824 820 814 808 802 796 790 785 782 781 780 779 778 787 797 779 775 760 762 764 768 764 763 765 768 773 769 767 781 778 777 765 762 760 766 778 778 787 782 783 776
846 844 842 839 835 830 825 820 814 808 802 795 787 783 781 780 780 779 784 801 790 780 763 764 765 769 768 764 766 766 771 768 759 764 768 781 772 759 760 758 759 771 779 770 773 785 794
847 845 842 840 836 831 826 820 815 808 802 795 788 783 780 780 780 779 789 790 777 766 762 763 771 768 773 764 769 770 765 755 752 756 752 757 767 757 761 759 765 764 767 777 789 778 779
849 846 844 841 837 832 827 821 815 808 802 796 789 787 780 779 779 785 793 789 773 764 763 768 766 767 768 763 769 771 756 748 747 753 756 759 764 759 761 764 762 773 772 771 775 778 770
851 848 846 843 838 833 829 823 817 810 803 798 799 797 780 780 788 799 790 778 770 764 763 765 764 766 766 764 764 769 761 746 744 749 756 755 767 766 757 747 749 751 755 753 758 759 764
854 851 848 845 840 836 831 826 820 814 811 808 803 797 781 780 789 791 783 776 770 764 765 762 762 762 759 761 762 757 752 742 745 746 751 753 762 765 749 753 754 753 753 751 748 751 732
856 854 850 846 841 837 832 826 820 815 811 809 805 798 786 783 787 782 781 776 772 763 764 761 759 757 760 759 758 749 748 740 743 742 737 739 753 747 740 733 745 754 748 747 737 739 736
859 856 853 849 844 841 835 829 823 816 809 808 804 795 792 788 783 785 783 777 772 771 765 762 757 760 759 758 755 751 749 744 740 737 739 738 737 743 727 726 729 728 727 732 730 726 731
861 858 854 850 846 842 837 833 829 820 811 810 811 806 805 796 789 784 778 770 770 766 767 760 759 757 755 751 751 747 746 741 737 739 741 739 730 737 731 727 729 725 717 719 717 711 710
862 859 855 852 848 845 841 837 833 828 822 821 821 819 815 804 796 791 786 795 788 796 778 774 781 776 764 752 760 750 737 727 725 724 730 736 736 727 712 715 714 708 692 698 696 696 695
862 859 856 853 849 845 843 840 836 833 831 830 829 826 822 816 809 802 798 794 788 792 788 781 777 775 765 760 751 739 731 726 720 713 712 718 725 724 702 713 696 673 708 699 687 695 716
862 859 856 853 850 846 843 840 838 835 833 831 829 827 824 819 815 811 803 805 800 793 788 780 775 773 765 759 752 732 721 715 706 704 704 703 701 700 695 688 670 683 726 723 706 722 744
862 859 856 853 849 846 844 841 838 835 833 831 829 828 825 821 816 810 811 808 803 801 792 781 776 770 766 762 751 734 718 710 706 706 710 697 690 690 685 676 668 743 747 745 733 718 754
861 858 854 851 848 845 843 840 837 834 832 831 828 827 827 824 816 812 811 812 808 806 802 792 785 776 766 763 760 745 733 726 719 711 712 710 701 682 667 666 722 770 765 748 710 758 773
859 856 853 849 846 842 840 837 834 832 830 828 825 825 825 820 813 808 808 809 807 806 801 793 791 782 776 775 769 756 740 749 754 742 740 741 736 717 714 685 687 776 760 752 786 781 783
857 852 848 845 842 838 836 833 831 828 826 824 821 820 820 819 811 804 800 798 800 795 799 797 791 789 786 783 788 789 776 764 750 756 736 742 788 775 792 786 805 801 800 801 797 793 792
Wind_Speed
22 23 24 24 24 24 26 27 25 20 15 12 10 8 6 5 5 5 5 4 4 4 5 7 9 9 2 2 5 2 3 2 1 1 2 3 3 3 2 2 0 2 2 3 2 4 4
21 22 22 23 24 25 26 27 28 26 20 14 13 10 8 6 6 6 7 6 7 6 7 8 9 7 1 3 2 1 2 0 3 2 2 1 4 4 3 2 2 1 2 4 3 3 3
20 21 22 23 23 24 25 27 26 27 26 22 16 13 9 9 8 8 8 8 9 8 7 7 6 4 1 7 2 1 1 1 3 2 3 2 3 2 3 1 1 1 4 5 5 3 4
19 20 21 22 23 23 24 25 26 27 28 27 23 16 13 9 8 8 9 9 9 9 7 5 5 1 5 3 3 2 1 2 1 1 3 3 2 4 1 2 5 2 3 4 1 4 1
19 20 20 21 22 22 23 24 25 27 28 28 27 21 15 10 5 5 9 10 10 9 8 7 3 1 7 2 2 2 1 1 1 2 2 3 3 3 2 3 4 5 2 3 7 6 2
19 19 19 20 22 22 23 24 25 26 28 28 28 26 19 13 7 12 7 8 5 5 3 2 1 3 2 2 2 2 1 1 2 2 2 4 4 2 2 3 4 4 3 4 5 1 2
18 18 19 20 22 23 25 25 26 27 28 29 29 27 22 13 7 8 3 1 4 2 1 7 3 3 2 1 2 2 2 2 2 3 3 2 2 6 8 6 2 2 2 5 4 3 3
18 18 20 21 22 25 26 26 26 28 29 30 30 28 23 14 6 10 3 4 1 1 6 4 4 4 4 1 2 3 2 3 2 4 2 3 7 4 3 4 2 2 2 6 6 2 3
18 19 20 21 22 25 25 26 27 29 30 30 31 29 25 15 4 4 8 4 2 2 1 4 4 3 2 5 3 3 5 2 3 3 6 6 1 4 3 3 3 3 5 4 6 5 2
20 19 21 22 23 23 25 26 28 29 30 31 31 29 24 14 1 4 2 3 2 1 4 4 2 2 2 2 3 1 1 2 1 5 5 5 1 4 3 4 7 3 5 3 2 3 3
19 19 20 21 24 24 25 27 28 29 31 31 31 30 20 10 5 2 3 3 3 1 4 1 2 1 1 3 1 1 1 2 4 4 4 6 6 4 5 7 7 5 2 2 1 2 3
18 18 19 22 24 24 26 28 29 31 33 32 31 30 18 7 3 3 5 3 1 5 6 1 2 2 1 2 2 2 1 3 1 0 2 6 1 5 6 2 4 5 3 4 3 2 1
17 16 17 22 23 25 27 29 30 32 33 33 31 28 15 7 2 5 4 1 5 4 2 2 4 3 2 3 3 5 4 3 5 1 4 2 4 2 3 3 1 3 4 3 4 2 6
14 14 19 22 22 26 29 30 31 32 31 32 29 24 10 3 3 5 1 5 4 4 6 2 2 1 4 5 4 3 1 3 5 3 2 4 7 8 5 6 7 6 7 5 6 4 5
13 16 19 20 21 24 26 30 31 33 34 34 26 17 4 3 3 4 4 2 7 7 3 2 1 3 3 3 4 3 6 5 7 10 8 6 6 2 3 2 3 4 5 2 1 2 2
13 16 18 20 23 26 27 27 29 32 33 30 21 9 2 2 5 2 4 5 5 4 1 1 7 7 6 4 3 4 5 4 4 9 1 3 5 2 2 2 2 3 3 3 2 4 6
18 19 20 22 23 25 27 28 28 31 33 27 7 4 2 4 4 4 3 7 6 5 4 6 6 5 8 5 7 5 5 3 4 3 4 4 4 3 4 7 9 2 2 2 2 4 5
19 19 20 21 24 26 28 29 29 29 30 22 7 3 5 5 2 1 2 4 3 4 1 5 3 7 7 7 6 6 9 8 7 8 7 6 5 6 12 3 2 4 9 10 6 7 5
20 20 21 22 24 26 27 29 30 29 25 11 5 3 4 0 2 3 5 5 4 3 4 3 4 6 3 6 4 8 6 5 7 9 9 7 4 4 8 2 3 5 5 5 2 2 19
21 21 22 23 24 26 29 31 32 31 22 8 3 4 4 3 1 1 3 6 4 3 5 4 5 3 2 5 6 5 4 4 6 5 6 7 6 8 17 12 4 5 7 7 12 8 8
19 20 21 22 24 25 28 30 32 35 23 2 2 3 2 4 3 3 3 5 14 12 5 2 3 4 6 5 4 7 6 4 5 6 6 7 18 10 19 20 15 18 19 12 15 17 11
19 19 20 21 23 24 26 27 30 34 27 4 4 4 6 5 8 9 8 7 14 13 10 15 14 14 17 20 16 21 17 16 15 3 6 4 14 9 19 13 13 19 25 22 24 25 21
20 20 20 21 22 23 23 24 25 28 26 8 9 7 3 5 6 9 4 8 12 11 8 11 18 18 11 14 20 19 19 18 20 13 8 6 5 6 16 16 16 17 27 27 24 19 19
20 21 21 22 22 22 21 21 21 21 20 12 6 4 3 4 3 4 10 16 16 15 12 15 14 12 8 18 24 14 17 16 15 22 16 12 12 4 10 10 16 10 3 2 16 10 3
21 21 21 21 22 21 20 20 19 17 16 15 13 4 2 4 2 11 6 4 12 10 5 12 8 10 15 11 6 7 5 6 16 23 20 20 18 9 10 16 17 4 5 4 1 2 7
21 21 21 21 21 21 20 18 18 16 15 13 11 11 4 4 3 3 5 4 5 4 6 5 10 9 6 4 4 7 6 3 5 5 3 14 22 16 14 17 20 6 6 13 5 2 12
22 22 21 21 20 20 20 18 17 15 14 14 10 8 4 4 4 3 1 2 4 4 4 5 8 10 3 2 3 4 8 6 9 7 7 5 6 16 20 14 5 8 16 11 2 4 8
22 22 22 22 21 20 19 18 17 15 14 11 12 12 7 3 7 10 5 6 4 5 7 6 7 3 4 4 3 3 5 5 6 15 7 4 6 5 7 6 4 20 5 6 1 7 8
29 27 23 20 20 20 20 18 17 20 19 17 10 16 11 7 7 31 31 35 26 27 10 3 4 5 4 2 3 3 6 3 2 6 5 4 4 4 5 3 4 8 7 9 9 5 7
Wind_Direction
23 20 20 18 19 20 30 31 28 24 18 12 5 0 346 317 295 289 277 263 263 280 268 292 312 321 270 253 251 290 334 346 190 195 134 182 173 149 205 195 244 188 244 215 244 186 234
21 18 19 18 19 20 28 30 32 31 25 14 7 356 341 319 298 285 272 266 272 276 278 293 307 315 266 266 190 330 338 2 62 130 128 117 173 180 137 192 177 233 260 266 271 227 238
15 14 15 15 16 18 22 26 27 29 27 19 9 360 341 315 296 274 267 266 271 270 284 302 310 309 254 237 206 323 319 150 78 107 137 133 134 131 131 204 249 198 319 308 215 211 232
6 8 9 10 11 12 16 18 20 21 22 21 15 5 355 342 305 273 263 264 268 262 267 302 305 298 240 217 250 248 335 190 150 86 116 121 104 110 109 151 18 41 56 1 216 153 277
360 3 3 4 6 7 10 11 13 15 15 15 15 9 359 346 345 313 276 270 273 255 262 275 271 180 272 233 237 235 299 212 310 125 85 115 88 103 50 96 8 7 243 236 312 198 142
359 0 0 1 3 2 8 8 8 9 9 10 9 9 1 347 329 326 296 280 260 244 244 201 237 18 264 234 192 221 230 107 127 94 51 51 51 78 45 97 230 228 279 250 239 237 209
358 360 1 4 4 5 9 6 7 6 5 5 5 5 2 358 349 345 329 213 13 314 197 198 192 229 247 225 239 202 157 122 102 71 197 8 75 223 222 202 171 150 198 251 253 266 269
3 6 6 7 5 7 6 5 5 4 3 3 2 1 0 355 341 5 7 77 77 283 306 222 242 265 236 175 295 228 177 169 160 208 122 17 237 220 118 142 144 153 247 262 283 280 196
9 9 8 7 5 4 3 3 3 2 1 1 1 359 357 354 339 359 59 70 26 346 239 289 209 207 204 160 236 229 156 154 180 188 195 187 245 118 135 157 183 219 198 229 238 332 267
7 7 7 7 2 2 360 360 360 359 359 358 359 357 354 355 59 2 56 13 349 353 43 252 241 258 117 131 276 132 102 155 228 210 169 232 259 173 180 230 155 270 206 171 254 36 255
3 1 3 3 355 357 357 357 358 358 356 355 355 354 352 358 335 39 331 324 317 187 349 187 197 151 106 177 82 209 25 66 221 200 133 254 169 185 197 218 163 224 105 138 96 155 9
358 357 2 357 353 357 356 356 355 356 354 351 351 350 349 347 333 353 330 311 210 40 259 257 138 203 179 175 224 109 115 59 67 158 243 245 302 188 211 128 166 134 97 61 60 100 316
355 359 357 353 359 359 357 355 353 352 351 347 346 345 340 329 324 337 336 38 28 153 338 242 235 180 230 219 238 179 179 187 193 149 249 281 222 224 168 126 50 126 71 318 326 0 230
346 351 347 349 3 358 354 352 351 351 349 344 342 340 334 324 323 336 3 50 205 243 243 334 92 108 220 169 240 190 180 262 226 135 127 207 307 182 178 201 184 179 170 168 246 227 262
356 345 340 344 353 356 351 348 350 347 348 344 340 336 338 357 346 332 77 129 211 212 243 205 13 214 265 245 199 172 214 218 218 175 186 179 266 154 189 151 151 179 184 196 165 117 352
23 20 13 7 359 355 356 351 352 348 347 348 335 319 331 23 345 17 83 232 240 215 198 164 206 182 223 219 187 185 210 205 237 193 56 220 291 194 141 114 42 166 164 79 11 248 245
35 26 20 14 10 2 359 358 354 351 349 350 358 356 359 351 342 56 205 231 273 254 204 191 226 248 223 220 205 211 235 257 212 144 174 157 167 241 130 196 185 129 217 216 177 172 213
30 26 21 16 12 10 5 3 360 358 353 4 1 336 336 344 12 101 223 215 291 280 166 265 222 221 208 209 226 233 224 220 175 156 177 210 172 234 217 237 194 193 203 179 205 234 238
30 27 22 16 13 11 8 5 2 2 6 342 324 276 317 15 227 251 283 277 251 258 229 221 259 212 182 215 239 205 224 246 186 169 179 186 218 309 309 24 14 229 210 217 314 10 243
23 21 18 16 15 11 8 5 1 358 353 339 294 307 302 50 88 215 289 267 269 290 267 243 253 201 178 239 230 266 230 265 200 224 204 158 189 204 254 250 148 208 221 211 220 239 245
21 18 17 14 12 8 7 5 2 358 357 326 238 255 313 296 320 309 317 294 293 288 226 276 271 225 235 271 260 237 237 276 235 232 210 181 256 231 256 260 258 259 258 231 229 235 242
16 14 13 12 10 8 8 6 4 2 5 23 335 350 351 313 312 284 286 266 291 306 307 274 269 308 301 269 260 276 281 271 264 183 197 203 247 222 255 260 241 253 253 246 246 249 250
7 5 4 2 2 2 2 3 6 9 18 18 355 345 304 313 316 309 316 2 344 5 297 351 343 323 310 311 331 316 293 266 259 232 215 186 231 198 259 270 261 252 246 246 247 243 234
2 359 356 353 351 352 352 355 359 5 14 11 344 312 325 290 322 308 308 323 324 333 292 285 295 296 305 314 314 292 276 260 249 252 231 232 230 241 262 264 247 250 17 272 224 248 18
356 354 351 348 346 345 346 345 347 351 356 359 348 343 321 289 314 300 302 353 313 305 295 296 277 331 319 300 293 287 262 253 243 238 238 232 241 252 251 242 257 264 14 11 139 7 355
350 346 344 342 341 341 337 337 338 338 339 341 345 339 309 307 255 358 333 291 317 316 311 265 325 308 293 293 283 292 289 298 267 289 327 246 237 238 244 259 264 44 343 337 301 215 3
347 343 339 337 334 335 332 331 330 329 330 330 314 316 311 280 276 3 304 318 300 312 268 308 338 323 292 287 289 283 279 321 299 324 341 332 291 246 238 244 111 339 307 297 160 2 4
348 344 338 332 329 327 326 325 321 318 311 303 291 294 270 259 280 260 255 260 267 262 275 326 328 357 319 350 314 325 303 39 328 315 318 319 315 321 326 308 240 353 346 36 299 44 31
336 328 315 318 326 322 319 318 314 309 311 321 276 291 290 245 272 288 281 272 257 256 268 255 257 326 285 340 349 351 310 273 319 300 7 302 337 321 9 26 12 5 40 14 31 52 32